Regional Weather Roundup
Issued by NWS Austin/San Antonio, TX

Home | Current Version | Previous Version | Text Only | Print | Product List | Glossary On
Versions: 1 2 3 4 5 6 7 8 9 10 11 12 13 14 15 16 17 18 19 20 21 22 23 24 25 26 27 28 29 30 31 32 33 34 35 36 37 38 39 40 41 42 43 44 45 46 47 48 49 50
000
ASUS44 KEWX 270611
RWREWX
SOUTH TEXAS REGIONAL WEATHER ROUNDUP
NATIONAL WEATHER SERVICE AUSTIN/SAN ANTONIO TX
1200 AM CST MON JAN 27 2020

NOTE: "FAIR" INDICATED FEW OR NO CLOUDS BELOW 12,000 FEET WITH NO
SIGNIFICANT WEATHER AND/OR OBSTRUCTIONS TO VISIBILITY.

* - THESE STATIONS ARE NOT NWS OR FAA STATIONS...AND ARE NOT SUBJECT
    TO NWS AND FAA QUALITY CONTROL.

TXZ171-172-183>190-270700-
TEXAS HILL COUNTRY AND EDWARDS PLATEAU

CITY           SKY/WX    TMP DP  RH WIND       PRES   REMARKS
JUNCTION       CLEAR     45  39  79 W3        30.04S
6HR MIN TEMP:  45; 6HR MAX TEMP:  72;

*LLANO         CLEAR     46  43  87 CALM      30.07S
BURNET         CLEAR     52  47  83 CALM      30.06R
6HR MIN TEMP:  52; 6HR MAX TEMP:  69;

*HORSESHOE BAY CLEAR     54  48  82 SE3       30.04
*LAGO VISTA    CLEAR     52  49  90 E6        30.04S
6HR MIN TEMP:  52; 6HR MAX TEMP:  65;

*KERRVILLE     CLEAR     45  40  85 CALM      30.03F
6HR MIN TEMP:  45; 6HR MAX TEMP:  72;

*FREDERICKSBRG CLEAR     44  41  88 CALM      30.04S
6HR MIN TEMP:  44; 6HR MAX TEMP:  67;

*ROCKSPRINGS   CLEAR     54  39  58 E6        30.07F
*BOERNE        CLEAR     45  43  93 CALM      30.05S
*CASTROVILLE   CLEAR     54  48  81 CALM      30.03S
HONDO          CLEAR     51  45  79 NE6       30.01S
6HR MIN TEMP:  51; 6HR MAX TEMP:  73;

*UVALDE        CLEAR     55  45  69 NE8       30.02R
6HR MIN TEMP:  52; 6HR MAX TEMP:  78;

DEL RIO        CLEAR     51  40  65 CALM      29.99R
6HR MIN TEMP:  51; 6HR MAX TEMP:  79;

*LAUGHLIN AFB  NOT AVBL
*SPOFFORD      NOT AVBL
*EAGLE PASS    CLEAR     54  36  50 CALM      29.99S
CARRIZO SPRGS  CLEAR     52  36  54 CALM      29.98R
*FAITH RANCH   CLEAR     57  41  54 SE6       29.98S
$$

TXZ173-191>194-202-209-217>225-228-270700-
CENTRAL AND SOUTH CENTRAL TEXAS

CITY           SKY/WX    TMP DP  RH WIND       PRES   REMARKS
GEORGETOWN     CLEAR     47  45  93 SW3       30.05S
6HR MIN TEMP:  46; 6HR MAX TEMP:  68;

*TAYLOR        CLEAR     46  45  97 CALM      30.03S
6HR MIN TEMP:  45; 6HR MAX TEMP:  68;

AUSTIN/BERGSTM CLEAR     47  45  93 CALM      30.04R
6HR MIN TEMP:  47; 6HR MAX TEMP:  70;

AUSTIN/MABRY   CLEAR     55  49  80 CALM      30.05R
6HR MIN TEMP:  54; 6HR MAX TEMP:  72;

*PFLUGERVILLE  CLEAR     50  48  93 CALM      30.05R
SAN MARCOS     CLEAR     49  46  90 N7        30.04S WCI  46
6HR MIN TEMP:  49; 6HR MAX TEMP:  66;

NEW BRAUNFELS  CLEAR     54  47  77 N7        30.01F
6HR MIN TEMP:  54; 6HR MAX TEMP:  71;

*RANDOLPH AFB  CLEAR     57  47  70 NE3       30.02R
6HR MIN TEMP:  51; 6HR MAX TEMP:  70;

*SEGUIN        CLEAR     53  47  79 CALM      30.06S
6HR MIN TEMP:  51; 6HR MAX TEMP:  69;

SAN ANTONIO    CLEAR     58  45  62 NE5       30.03R
6HR MIN TEMP:  56; 6HR MAX TEMP:  72;

STINSON FIELD  CLEAR     58  45  62 NE3       30.00R
6HR MIN TEMP:  53; 6HR MAX TEMP:  73;

*KELLY FIELD   CLEAR     54  46  73 N6        30.00R
6HR MIN TEMP:  53; 6HR MAX TEMP:  71;

*PLEASANTON    CLEAR     50  45  82 CALM      30.01S
6HR MIN TEMP:  49; 6HR MAX TEMP:  71;

*KENEDY        CLEAR     51  48  89 E3        30.02S
6HR MIN TEMP:  51; 6HR MAX TEMP:  75;

*LA GRANGE     CLEAR     52  52  99 CALM      30.01R
6HR MIN TEMP:  51; 6HR MAX TEMP:  71;

*GIDDINGS      CLEAR     54  50  85 NE6       30.02S
6HR MIN TEMP:  54; 6HR MAX TEMP:  71;

*GONZALES      CLEAR     56  49  78 NE5       30.02S
6HR MIN TEMP:  56; 6HR MAX TEMP:  71;

$$

TXZ163>164-176>182-195>201-210>213-226-227-235-270700-
SOUTHEAST TEXAS

CITY           SKY/WX    TMP DP  RH WIND       PRES   REMARKS
COLLEGE STN    CLEAR     51  48  89 CALM      30.02F
6HR MIN TEMP:  51; 6HR MAX TEMP:  67;

*BRYAN         CLEAR     53  52  97 N5        30.03F
6HR MIN TEMP:  51; 6HR MAX TEMP:  64;

*CALDWELL      CLEAR     48  48 100 N3        30.04S
6HR MIN TEMP:  47; 6HR MAX TEMP:  65;

*CROCKETT      NOT AVBL
*BRENHAM       CLEAR     53  50  89 CALM      30.03S
6HR MIN TEMP:  52; 6HR MAX TEMP:  66;

HUNTSVILLE     CLEAR     49  46  90 CALM      30.02S FOG
6HR MIN TEMP:  49; 6HR MAX TEMP:  65;

CONROE         MOCLDY    48  47  96 CALM      30.03S FOG
6HR MIN TEMP:  46; 6HR MAX TEMP:  61;

HOUSTON BUSH   PTCLDY    54  52  93 CALM      30.02R
6HR MIN TEMP:  53; 6HR MAX TEMP:  68;

HOUSTON HOBBY  FAIR      58  54  86 NE5       30.01R
6HR MIN TEMP:  57; 6HR MAX TEMP:  70;

*HOUSTON SW AP MOCLDY    51  51 100 CALM      30.03R
6HR MIN TEMP:  51; 6HR MAX TEMP:  68;

PEARLAND       CLOUDY    60  57  89 E5        30.02R
6HR MIN TEMP:  56; 6HR MAX TEMP:  71;

HOUSTON HOOKS  FAIR      51  49  92 CALM      30.02R
6HR MIN TEMP:  50; 6HR MAX TEMP:  68;

ELLINGTON FLD  NOT AVBL
SUGAR LAND     FAIR      52  51  97 CALM      30.01R
6HR MIN TEMP:  51; 6HR MAX TEMP:  68;

*HOUSTON EXEC  FAIR      52  50  93 N5        30.03S
*CLEVELAND MUN FOG       54  54  99 CALM      30.04R VSB 1/4
6HR MIN TEMP:  51; 6HR MAX TEMP:  59;

*WHARTON       CLEAR     54  47  78 N7        30.02F
6HR MIN TEMP:  54; 6HR MAX TEMP:  67;

*COLUMBUS      FAIR      49  42  75 NE3       30.03S
6HR MIN TEMP:  49; 6HR MAX TEMP:  67;

*EAGLE LAKE    CLEAR     53  50  91 N6        30.02
6HR MIN TEMP:  53; 6HR MAX TEMP:  70;

$$

TXZ214>216-236>238-270700-
THE UPPER TEXAS COAST

CITY           SKY/WX    TMP DP  RH WIND       PRES   REMARKS
*ORANGE        CLOUDY    57  55  94 N5        30.03S
6HR MIN TEMP:  56; 6HR MAX TEMP:  60;

PORT ARTHUR    CLOUDY    57  55  93 N12       30.01R
6HR MIN TEMP:  56; 6HR MAX TEMP:  61;

GALVESTON      FAIR      60  57  89 CALM      30.01S
6HR MIN TEMP:  59; 6HR MAX TEMP:  66;

ANGLETON       CLOUDY    55  53  93 CALM      30.01S FOG
6HR MIN TEMP:  54; 6HR MAX TEMP:  64;

*BAY CITY      FOG       57  57 100 CALM      30.01S VSB<1/4
PALACIOS       CLEAR     56  53  90 N5        30.01R
6HR MIN TEMP:  55; 6HR MAX TEMP:  69;

$$

TXZ229>234-239>247-270700-
TEXAS COASTAL BEND AND RIO GRANDE PLAINS

CITY           SKY/WX    TMP DP  RH WIND       PRES   REMARKS
VICTORIA       CLEAR     56  50  80 NE6       30.01R
6HR MIN TEMP:  53; 6HR MAX TEMP:  70;

*BEEVILLE      NOT AVBL
ROCKPORT       FOG       57  54  89 CALM      29.99F VSB 1/4
6HR MIN TEMP:  56; 6HR MAX TEMP:  69;

*PORT ARANSAS  FOG       60  59  97 S3        30.01S VSB 1
6HR MIN TEMP:  58; 6HR MAX TEMP:  65;

*PORT LAVACA   NOT AVBL
*INGLESIDE     FOG       57  57  98 S3        29.99S VSB 1/4
CORPUS CHRISTI FOG       53  52  96 SE6       29.99S VSB 1/16
6HR MIN TEMP:  53; 6HR MAX TEMP:  70;

CORPUS NAS     FOG       56  56 100 S5        29.99S VSB 1/4
6HR MIN TEMP:  55; 6HR MAX TEMP:  66;

*ROBSTOWN      CLEAR     56  53  90 SE3       29.99S FOG
6HR MIN TEMP:  55; 6HR MAX TEMP:  72;

ALICE          FOG       55  54  96 CALM      29.98S VSB 1/2
6HR MIN TEMP:  53; 6HR MAX TEMP:  74;

KINGSVILLE NAS FOG       53  51  93 SE3       29.99S VSB 1/4
6HR MIN TEMP:  53; 6HR MAX TEMP:  74;

COTULLA        CLEAR     57  47  69 E3        29.99R
6HR MIN TEMP:  57; 6HR MAX TEMP:  79;

LAREDO         CLEAR     60  47  61 SE5


USA.gov is the U.S. government's official web portal to all federal, state and local government web resources and services.